Regional Weather Roundup
Issued by NWS Charleston, SC

Current Version | Previous Version | Text Only | Print | Product List | Glossary Off
Versions: 1 2 3 4 5 6 7 8 9 10 11 12 13 14 15 16 17 18 19 20 21 22 23 24 25 26 27 28 29 30 31 32 33 34 35 36 37 38 39 40 41 42 43 44 45 46 47 48 49 50

000
ASUS42 KCHS 010825
RWRCHS

REGIONAL WEATHER ROUNDUP
NATIONAL WEATHER SERVICE CHARLESTON SC
400 AM EDT WED OCT 01 2014

NOTE: "FAIR" INDICATES FEW OR NO CLOUDS BELOW 12,000 FEET WITH NO
SIGNIFICANT WEATHER AND/OR OBSTRUCTIONS TO VISIBILITY.

NOT ALL STATIONS ARE QUALITY CONTROLLED BY THE NATIONAL
WEATHER SERVICE. USE DATA WITH CAUTION...ESPECIALLY
DEWPOINT OBSERVATIONS.

SCZ027-030-031-034>040-042>050-010900-
...SOUTH CAROLINA...

CITY           SKY/WX    TMP DP  RH WIND       PRES   REMARKS
N CHARLESTON   CLEAR     65  63  93 N3        29.89F
WATERFRONT PRK   N/A     70 N/A N/A N3          N/A
FORT JOHNSON   NOT AVBL
MOUNT PLEASANT FAIR      63  63 100 CALM      29.89S
JOHNS ISLAND   SUNNY     64  64 100 CALM      29.90S
PINOPOLIS        N/A     73  70  88 NW3       29.82S
MONCKS CORNER  FAIR      63  63 100 CALM      29.90S FOG
SUMMERVILLE    FAIR      61  61 100 CALM      29.91S
BEAUFORT MCAS  CLEAR     66  65  96 CALM      29.90S FOG
BEAUFORT ARPT  FAIR      68  68 100 CALM      29.89S
HILTON HEAD IS   N/A     66  66 100 CALM      29.91R FOG
GEORGETOWN     NOT AVBL
WALTERBORO     SUNNY     61 N/A N/A CALM      29.91S
ORANGEBURG     CLEAR     62  59  90 CALM      29.90F FOG
BARNWELL       FAIR      61  61 100 CALM      29.92R
AIKEN          FAIR      61  61 100 CALM      29.95S
MANNING        FAIR      61 N/A N/A CALM      29.90F
KINGSTREE      NOT AVBL
COLUMBIA       MOCLDY    61  58  90 W3        29.91S
SUMTER         CLEAR     62  59  90 NW1       29.89F
FLORENCE       CLEAR     62  60  93 CALM      29.91R
MYRTLE BEACH   CLEAR     64  61  88 N3        29.89S
N MYRTLE BEACH CLEAR     64  62  93 N5        29.89S

$$

GAZ063-065-086>088-099>101-113>116-118-119-134-136>141-150-010900-
...GEORGIA...

CITY           SKY/WX    TMP DP  RH WIND       PRES   REMARKS
SAVANNAH ARPT  CLEAR     67  64  90 CALM      29.90S
HUNTER AAF     CLEAR     64  64 100 W3        29.88S
FORT STEWART   CLEAR     64  63  95 CALM      29.89S
STATESBORO     NOT AVBL
SYLVANIA       SUNNY     65  65  97 CALM      29.91S
CLAXTON        FAIR      63  63 100 CALM      29.91R
THOMSON        CLEAR     60  60 100 CALM      29.96S
AUGUSTA-BUSH   CLEAR     57  57 100 CALM      29.91S
AUGUSTA-DANIEL CLEAR     68  63  84 CALM      29.91F
SWAINSBORO     FAIR      66  66 100 CALM      29.92S
VIDALIA        CLEAR     66  64  94 CALM      29.91S
ALMA           FOG       65  64  97 CALM      29.90S VSB 3/4
WAYCROSS       CLOUDY    70  70 100 CALM      29.90S
JESUP          FAIR      66  64  94 CALM      29.90S
BRUNSWICK        N/A     66  64  94 CALM      29.90S
SAINT SIMONS   CLEAR     67  66  97 CALM      29.89S

$$

SCZ027-028-034-036>038-045-046-048>050-GAZ119-141-010900-
...LAKE AND SUPPLEMENTAL COASTAL OBSERVATIONS...

STATION/POSITION TIME  TEMP    WIND        PRES    WAVE   SWELL
                       AIR SEA DIR/SP/G            HT/PER HT/PER/DIR
                 (UTC) (F)     (DEG/KT/KT) (MB)    (FT/S) (FT/S/D)
UPR LAKE MARION  NOT AVBL
WINYAH BAY       0800   67     360/  3     1012.0S
LAKE MURRAY      0700   66        CALM     1012.5S
ACE BASIN NERRS  0800   65        CALM     1012.0S
FORT PULASKI     0800   70     250/  2/  3 1012.5S
SAPELO ISLAND    NOT AVBL

$$

ANZ835-935-AMZ111-154-330-350-352-354-374-450-454-472-010900-
...C-MAN AND BUOY OBSERVATIONS...

STATION/POSITION TIME  TEMP    WIND        PRES    WAVE   SWELL
                       AIR SEA DIR/SP/G            HT/PER HT/PER/DIR
                 (UTC) (F)     (DEG/KT/KT) (MB)    (FT/S) (FT/S/D)
FOLLY BEACH CMAN 0800   67     300/  3/  4 1012.6F
BUOY 41004       0800   76 81  360/  8/ 10 1011.2F   3/ 6   3/ 6
BUOY 41008       0700   77 79   30/  8/  8 1012.0S   3/ 6   2/ 70/ 6
5E ST. MARYS GA  0800      79                N/A     3/ 5
FRYING PAN BUOY  NOT AVBL
BUOY 41025       0800   71     340/ 17/ 21 1010.7F   4/ 6   2/100/ 9
CAPE LOOKOUT NC  0800   68     360/ 10/ 12 1011.5S
BUOY 41002       NOT AVBL
BUOY 41010       0800   81 84   20/  6/ 10 1010.7R   4/ 8   3/ 20/ 8
BUOY 41012       NOT AVBL
ST AUGUSTINE FL  0800   77      40/  9/ 10 1012.0S
CAPERS NEARSHORE 0700   71      10/  6/  8   N/A
FRIPP NEARSHORE  NOT AVBL


$$



USA.gov is the U.S. government's official web portal to all federal, state and local government web resources and services.